Weather History for Corning, AR

Change the Weather History Date:

Friday, May 24, 2013

  Actual Average (KARG) Record (KARG)
Temperature  
Mean Temperature 62 °F -  
Max Temperature 71 °F 78 °F 91 °F (1998)
Min Temperature 53 °F 59 °F 51 °F (2001)
Degree Days  
Heating Degree Days 3    
Growing Degree Days 12 (Base 50)    
Moisture  
Dew Point 47 °F    
Average Humidity 61    
Maximum Humidity 88    
Minimum Humidity 33    
Precipitation  
Precipitation 0.00 in - - ()
Sea Level Pressure  
Sea Level Pressure 30.30 in    
Wind  
Wind Speed 12 mph (NE)    
Max Wind Speed 21 mph    
Max Gust Speed 26 mph    
Visibility 10 miles    
Events      
Averages and records for this station are not official NWS values.
T = Trace of Precipitation, MM = Missing Value Source: NWS Daily Summary

Daily Weather History Graph

Daily Weather History Graph

Search for Another Location

Airport:

Trip Planner

Search our weather history database for the weather conditions in past years. The results will help you decide how hot, cold, wet, or windy it might be!

Date:

Astronomy

May. 24, 2013 Rise Set
Actual Time 5:49 AM CDT 8:09 PM CDT
Civil Twilight 5:20 AM CDT 8:39 PM CDT
Nautical Twilight 4:44 AM CDT 9:15 PM CDT
Astronomical Twilight 4:04 AM CDT 9:55 PM CDT
Moon 7:52 PM CDT (5/24) 5:20 AM CDT (5/24)
Length of Visible Light 15h 18m
Length of Day
14h 20m
Full, 100% of the Moon is Illuminated
May 24
Full
May 24
Full
May 31
Last Quarter
Jun 8
New
Jun 16
First Quarter

Hourly Weather History & Observations

Time (CDT) Temp. Dew Point Humidity Pressure Visibility Wind Dir Wind Speed Gust Speed Precip Events Conditions
12:15 AM 62.6 °F 55.4 °F 77% 30.21 in 10.0 mi NE 16.1 mph 23.0 mph N/A   Partly Cloudy
12:35 AM 60.8 °F 51.8 °F 72% 30.21 in 10.0 mi NE 20.7 mph 26.5 mph N/A   Clear
12:55 AM 60.8 °F 51.8 °F 72% 30.21 in 10.0 mi NE 16.1 mph 23.0 mph N/A   Clear
1:15 AM 59.0 °F 53.6 °F 82% 30.22 in 10.0 mi NNE 10.4 mph - N/A   Clear
1:35 AM 59.0 °F 53.6 °F 82% 30.22 in 10.0 mi NNE 9.2 mph - N/A   Clear
1:55 AM 57.2 °F 53.6 °F 88% 30.23 in 10.0 mi NNE 6.9 mph - N/A   Clear
2:15 AM 57.2 °F 53.6 °F 88% 30.23 in 10.0 mi NNE 8.1 mph - N/A   Clear
2:35 AM 57.2 °F 53.6 °F 88% 30.23 in 10.0 mi NNE 9.2 mph - N/A   Clear
2:55 AM 57.2 °F 53.6 °F 88% 30.23 in 10.0 mi NE 12.7 mph - N/A   Clear
3:15 AM 57.2 °F 53.6 °F 88% 30.24 in 10.0 mi NE 11.5 mph - N/A   Clear
3:35 AM 57.2 °F 53.6 °F 88% 30.24 in 10.0 mi NE 12.7 mph - N/A   Clear
3:55 AM 55.4 °F 51.8 °F 88% 30.25 in 10.0 mi NE 9.2 mph - N/A   Clear
4:15 AM 55.4 °F 51.8 °F 88% 30.27 in 10.0 mi NE 10.4 mph - N/A   Clear
4:35 AM 55.4 °F 51.8 °F 88% 30.27 in 10.0 mi NNE 8.1 mph - N/A   Clear
4:55 AM 53.6 °F 50.0 °F 88% 30.27 in 10.0 mi NNE 9.2 mph - N/A   Clear
5:15 AM 53.6 °F 50.0 °F 88% 30.28 in 10.0 mi NNE 8.1 mph - N/A   Clear
5:35 AM 53.6 °F 50.0 °F 88% 30.30 in 9.0 mi NE 6.9 mph - N/A   Clear
5:55 AM 53.6 °F 50.0 °F 88% 30.31 in 8.0 mi NNE 8.1 mph - N/A   Clear
6:15 AM 53.6 °F 50.0 °F 88% 30.32 in 10.0 mi NNE 8.1 mph - N/A   Clear
6:35 AM 55.4 °F 48.2 °F 77% 30.33 in 10.0 mi NNE 11.5 mph - N/A   Clear
6:55 AM 55.4 °F 46.4 °F 72% 30.34 in 10.0 mi NE 11.5 mph 17.3 mph N/A   Clear
7:15 AM 55.4 °F 48.2 °F 77% 30.36 in 10.0 mi NNE 12.7 mph - N/A   Clear
7:35 AM 55.4 °F 46.4 °F 72% 30.35 in 10.0 mi NE 16.1 mph - N/A   Clear
7:55 AM 55.4 °F 42.8 °F 63% 30.36 in 10.0 mi NE 15.0 mph - N/A   Clear
8:15 AM 57.2 °F 41.0 °F 55% 30.37 in 10.0 mi NE 13.8 mph - N/A   Clear
8:35 AM 57.2 °F 41.0 °F 55% 30.38 in 10.0 mi NE 15.0 mph - N/A   Clear
8:55 AM 57.2 °F 41.0 °F 55% 30.37 in 10.0 mi NE 15.0 mph - N/A   Clear
9:15 AM 59.0 °F 42.8 °F 55% 30.37 in 10.0 mi NE 13.8 mph - N/A   Clear
9:35 AM 59.0 °F 44.6 °F 59% 30.38 in 10.0 mi NNE 12.7 mph - N/A   Clear
9:55 AM 60.8 °F 46.4 °F 59% 30.37 in 10.0 mi ENE 11.5 mph 16.1 mph N/A   Clear
10:15 AM 62.6 °F 46.4 °F 55% 30.37 in 10.0 mi NE 11.5 mph 17.3 mph N/A   Clear
10:35 AM 62.6 °F 46.4 °F 55% 30.37 in 10.0 mi NE 11.5 mph 17.3 mph N/A   Unknown
10:55 AM 64.4 °F 46.4 °F 52% 30.37 in 10.0 mi ENE 10.4 mph 17.3 mph N/A   Unknown
11:15 AM 64.4 °F 46.4 °F 52% 30.38 in 10.0 mi ENE 10.4 mph - N/A   Unknown
11:35 AM 64.4 °F 46.4 °F 52% 30.38 in 10.0 mi NE 15.0 mph 18.4 mph N/A   Unknown
11:55 AM 66.2 °F 46.4 °F 49% 30.37 in 10.0 mi NE 15.0 mph - N/A   Unknown
12:15 PM 66.2 °F 46.4 °F 49% 30.37 in 10.0 mi NE 15.0 mph 19.6 mph N/A   Unknown
12:35 PM 66.2 °F 46.4 °F 49% 30.36 in 10.0 mi ENE 13.8 mph - N/A   Unknown
12:55 PM 68.0 °F 46.4 °F 46% 30.36 in 10.0 mi ENE 11.5 mph 16.1 mph N/A   Unknown
1:15 PM 68.0 °F 46.4 °F 46% 30.35 in 10.0 mi ENE 10.4 mph - N/A   Unknown
1:35 PM 68.0 °F 44.6 °F 43% 30.34 in 10.0 mi NE 12.7 mph 19.6 mph N/A   Clear
1:55 PM 69.8 °F 46.4 °F 43% 30.33 in 10.0 mi NE 12.7 mph - N/A   Clear
2:15 PM 69.8 °F 46.4 °F 43% 30.33 in 10.0 mi ENE 13.8 mph 19.6 mph N/A   Clear
2:35 PM 71.6 °F 46.4 °F 41% 30.32 in 6.0 mi NE 16.1 mph - N/A   Haze
2:55 PM 71.6 °F 44.6 °F 38% 30.33 in 10.0 mi East 10.4 mph - N/A   Clear
3:15 PM 71.6 °F 46.4 °F 41% 30.32 in 9.0 mi NE 12.7 mph - N/A   Clear
3:35 PM 71.6 °F 44.6 °F 38% 30.31 in 8.0 mi ENE 12.7 mph 19.6 mph N/A   Clear
3:55 PM 71.6 °F 44.6 °F 38% 30.30 in 10.0 mi ENE 13.8 mph 18.4 mph N/A   Clear
4:15 PM 71.6 °F 46.4 °F 41% 30.29 in 10.0 mi NE 13.8 mph 19.6 mph N/A   Clear
4:35 PM 71.6 °F 44.6 °F 38% 30.28 in 10.0 mi East 16.1 mph 20.7 mph N/A   Clear
4:55 PM 71.6 °F 42.8 °F 35% 30.29 in 10.0 mi East 10.4 mph 20.7 mph N/A   Clear
5:15 PM 71.6 °F 41.0 °F 33% 30.27 in 10.0 mi ENE 15.0 mph 18.4 mph N/A   Clear
5:35 PM 71.6 °F 41.0 °F 33% 30.27 in 10.0 mi ENE 9.2 mph - N/A   Clear
5:55 PM 71.6 °F 44.6 °F 38% 30.25 in 10.0 mi East 9.2 mph - N/A   Clear
6:15 PM 69.8 °F 42.8 °F 38% 30.25 in 10.0 mi ENE 10.4 mph - N/A   Clear
6:35 PM 68.0 °F 42.8 °F 40% 30.26 in 10.0 mi ENE 9.2 mph - N/A   Clear
6:55 PM 68.0 °F 42.8 °F 40% 30.25 in 10.0 mi East 11.5 mph - N/A   Clear
7:15 PM 66.2 °F 44.6 °F 46% 30.26 in 10.0 mi East 5.8 mph - N/A   Clear
7:35 PM 66.2 °F 46.4 °F 49% 30.27 in 10.0 mi East 6.9 mph - N/A   Clear
7:55 PM 62.6 °F 48.2 °F 59% 30.26 in 10.0 mi East 5.8 mph - N/A   Clear
8:15 PM 62.6 °F 48.2 °F 59% 30.26 in 10.0 mi East 8.1 mph - N/A   Clear
8:35 PM 62.6 °F 44.6 °F 52% 30.26 in 10.0 mi East 10.4 mph - N/A   Clear
8:55 PM 62.6 °F 46.4 °F 55% 30.26 in 10.0 mi East 6.9 mph - N/A   Clear
9:15 PM 62.6 °F 46.4 °F 55% 30.27 in 10.0 mi East 5.8 mph - N/A   Clear
9:35 PM 59.0 °F 46.4 °F 63% 30.27 in 10.0 mi East 6.9 mph - N/A   Clear
9:55 PM 59.0 °F 46.4 °F 63% 30.28 in 10.0 mi ENE 6.9 mph - N/A   Clear
10:15 PM 59.0 °F 48.2 °F 67% 30.28 in 10.0 mi ENE 6.9 mph - N/A   Clear
10:35 PM 59.0 °F 46.4 °F 63% 30.28 in 10.0 mi East 8.1 mph - N/A   Clear
10:55 PM 59.0 °F 48.2 °F 67% 30.27 in 10.0 mi East 9.2 mph - N/A   Clear
11:15 PM 59.0 °F 48.2 °F 67% 30.28 in 10.0 mi ENE 5.8 mph - N/A   Clear
11:35 PM 59.0 °F 48.2 °F 67% 30.28 in 10.0 mi ENE 3.5 mph - N/A   Clear
11:55 PM 57.2 °F 50.0 °F 77% 30.28 in 10.0 mi ENE 4.6 mph - N/A   Clear